Погода в Койтыбоже

Россия / Республика Коми     61°51′34″N   50°43′51″E
темп.,
°C
ветер,
м/с
пор.,
м/с
влажн.,
%
обл.,
%
осадки,
мм/ч
давл.,
гПа
погр.,
м
15 апреля, чт
чт1500:00+12юз61682100 0.0 1014846
03:00+6ссз41090100 0.3 1017565
06:00+4сз3887100 0.8 1020715
09:00+5ссз465472 0.8 10221088
12:00+7ссз4637100 0.0 10231540
15:00+7ссз573798 0.0 10251698
18:00+5ссз37485 0.0 1026698
21:00+2ссз26660 0.0 1028137
16 апреля, пт
пт1600:000с23740 0.0 103063
03:000с11710 0.0 103110
06:00+1з12646 0.0 1031120
09:00+5зюз34455 0.0 10311074
12:00+7з463644 0.0 10301515
15:00+8зсз4737100 0.0 10291888
18:00+7зсз375175 0.0 1028501
21:00+3сз287538 0.0 1029207
17 апреля, сб
сб1700:00+1сз25895 0.0 1030131
03:000сз269414 0.0 1030159
06:00+1сз388554 0.0 1031439
09:00+5сз465391 0.0 1029988
12:00+8зсз5850100 0.0 10281451
15:00+9зсз5124899 0.0 10262051
18:00+7сз6135992 0.0 10241547
21:00+5сз5116985 0.1 10241036
18 апреля, вс
вс1800:00+2с599598 0.2 1025810
03:00−1с48665 0.3 1028959
06:00−1ссв48605 0.0 10311103
09:00+1ссв574070 0.0 10331783
12:00+3ссв46295 0.0 10342054
15:00+3ссв46262 0.0 10352053
18:00+2св35335 0.0 1036840
21:00−1св23455 0.0 1038105
19 апреля, пн
пн1900:00−2в11465 0.0 103941
03:00−2зюз11465 0.0 104035
06:00−1з12414 0.0 1040233
09:00+3зсз23295 0.0 10401398
12:00+5зсз24255 0.0 10381724
15:00+7зсз24255 0.0 10371753
18:00+5з23385 0.0 1036330
21:00+1зюз24545 0.0 103682